Weather History for China Lake, CA

Change the Weather History Date:

Monday, August 5, 2013

  Actual Average Record
Temperature  
Mean Temperature 88 °F -  
Max Temperature 107 °F 100 °F 111 °F (1998)
Min Temperature 69 °F 71 °F 57 °F (2011)
Cooling Degree Days 22    
Growing Degree Days 38 (Base 50)    
Moisture  
Dew Point 26 °F    
Average Humidity 12    
Maximum Humidity 22    
Minimum Humidity 4    
Precipitation  
Precipitation 0.00 in - - ()
Sea Level Pressure  
Sea Level Pressure 29.84 in    
Wind  
Wind Speed 7 mph (South)    
Max Wind Speed 21 mph    
Max Gust Speed 25 mph    
Visibility 10 miles    
Events      
Averages and records for this station are not official NWS values.
T = Trace of Precipitation, MM = Missing Value Source: NWS Daily Summary

Daily Weather History Graph

Daily Weather History Graph

Search for Another Location

Airport:

Trip Planner

Search our weather history database for the weather conditions in past years. The results will help you decide how hot, cold, wet, or windy it might be!

Date:

Astronomy

Aug. 05, 2013 Rise Set
Actual Time 6:02 AM PDT 7:50 PM PDT
Civil Twilight 5:34 AM PDT 8:18 PM PDT
Nautical Twilight 5:00 AM PDT 8:51 PM PDT
Astronomical Twilight 4:24 AM PDT 9:27 PM PDT
Moon 5:01 AM PDT (8/5) 6:55 PM PDT (8/5)
Length of Visible Light 14h 44m
Length of Day
13h 48m
Waning Crescent, 1% of the Moon is Illuminated
Aug 5
Waning Crescent
Aug 6
New
Aug 14
First Quarter
Aug 20
Full
Aug 28
Last Quarter

Hourly Weather History & Observations

Time (PDT) Temp. Dew Point Humidity Pressure Visibility Wind Dir Wind Speed Gust Speed Precip Events Conditions
12:56 AM 82.0 °F 32.0 °F 16% 29.84 in 10.0 mi South 12.7 mph - N/A   Clear
1:56 AM 78.1 °F 27.0 °F 15% 29.84 in 10.0 mi SW 5.8 mph - N/A   Clear
2:56 AM 77.0 °F 27.0 °F 16% 29.83 in 10.0 mi South 11.5 mph - N/A   Clear
3:56 AM 72.0 °F 30.0 °F 21% 29.84 in 10.0 mi Calm Calm - N/A   Clear
4:56 AM 71.1 °F 28.0 °F 20% 29.85 in 10.0 mi ESE 3.5 mph - N/A   Clear
5:56 AM 69.1 °F 28.0 °F 22% 29.87 in 10.0 mi Calm Calm - N/A   Partly Cloudy
6:56 AM 72.0 °F 28.9 °F 20% 29.89 in 10.0 mi Calm Calm - N/A   Partly Cloudy
7:56 AM 77.0 °F 30.0 °F 18% 29.90 in 10.0 mi Calm Calm - N/A   Partly Cloudy
8:56 AM 82.9 °F 30.0 °F 15% 29.91 in 10.0 mi Calm Calm - N/A   Clear
9:56 AM 88.0 °F 30.0 °F 12% 29.91 in 10.0 mi South 4.6 mph - N/A   Clear
10:56 AM 93.9 °F 30.0 °F 10% 29.91 in 10.0 mi Calm Calm - N/A   Partly Cloudy
11:56 AM 98.1 °F 28.9 °F 9% 29.88 in 10.0 mi ESE 5.8 mph - N/A   Partly Cloudy
12:56 PM 100.9 °F 26.1 °F 7% 29.87 in 10.0 mi Variable 6.9 mph - N/A   Partly Cloudy
1:56 PM 102.9 °F 23.0 °F 6% 29.84 in 10.0 mi SSE 4.6 mph - N/A   Partly Cloudy
2:56 PM 106.0 °F 18.0 °F 4% 29.82 in 10.0 mi SSE 10.4 mph 24.2 mph N/A   Partly Cloudy
3:56 PM 106.0 °F 21.9 °F 5% 29.80 in 10.0 mi South 6.9 mph 21.9 mph N/A   Partly Cloudy
4:56 PM 106.0 °F 21.0 °F 5% 29.77 in 10.0 mi South 10.4 mph 20.7 mph N/A   Partly Cloudy
5:56 PM 105.1 °F 21.9 °F 5% 29.76 in 10.0 mi South 20.7 mph 25.3 mph N/A   Partly Cloudy
6:56 PM 100.9 °F 18.0 °F 5% 29.76 in 10.0 mi South 18.4 mph 24.2 mph N/A   Partly Cloudy
7:56 PM 95.0 °F 21.0 °F 7% 29.78 in 10.0 mi SW 8.1 mph - N/A   Partly Cloudy
8:56 PM 88.0 °F 19.9 °F 8% 29.81 in 10.0 mi South 8.1 mph - N/A   Clear
9:56 PM 86.0 °F 25.0 °F 11% 29.81 in 10.0 mi South 9.2 mph - N/A   Clear
10:56 PM 84.9 °F 25.0 °F 11% 29.81 in 10.0 mi South 12.7 mph - N/A   Clear
11:56 PM 82.9 °F 27.0 °F 13% 29.81 in 10.0 mi South 11.5 mph - N/A   Clear